Location: Newark
(35.9031°N, 139.7175°E)
Time: 03:43:18
(UTC+00:00)

Altair - Visible Passes

Search period start: 06 June 2020 00:00
Search period end: 16 June 2020 00:00
Orbit: 1501 x 1683 km, 47.2° (Epoch: 05 June)

Date Brightness Start Highest point End Pass type
(mag) Time Alt. Az. Time Alt. Az. Time Alt. Az.
06 Jun 8.3 12:06:08 10° W 12:15:46 55° NNW 12:25:43 10° ENE visible
06 Jun 8.6 14:12:57 10° WNW 14:22:28 44° N 14:32:05 10° ENE visible
06 Jun 7.9 16:18:39 10° NW 16:28:49 70° NNE 16:38:54 10° ESE visible
06 Jun 7.9 18:23:58 10° WNW 18:33:26 46° SW 18:42:44 10° SSE visible
07 Jun 8.2 11:40:49 10° W 11:50:28 57° NNW 12:00:26 10° ENE visible
07 Jun 8.6 13:47:38 10° WNW 13:57:06 44° N 14:06:42 10° ENE visible
07 Jun 7.9 15:53:25 10° NW 16:03:32 67° NNE 16:13:37 10° ESE visible
07 Jun 7.8 17:58:39 10° WNW 18:08:18 50° SW 18:17:47 10° SSE visible
08 Jun 8.2 11:15:31 10° WSW 11:25:10 60° NNW 11:35:10 10° NE visible
08 Jun 8.6 13:22:19 10° WNW 13:31:45 44° N 13:41:20 10° ENE visible
08 Jun 8.0 15:28:10 10° NW 15:38:16 64° NNE 15:48:19 10° ESE visible
08 Jun 7.7 17:33:23 10° WNW 17:43:09 54° SW 17:52:48 10° SSE visible
09 Jun 8.1 10:50:14 10° WSW 10:59:53 63° NNW 11:09:55 10° NE visible
09 Jun 8.6 12:57:00 10° WNW 13:06:23 43° N 13:15:58 10° ENE visible
09 Jun 8.0 15:02:56 10° NW 15:12:58 61° NNE 15:22:59 10° ESE visible
09 Jun 7.6 17:08:05 10° WNW 17:17:59 59° SW 17:27:46 10° SSE visible
10 Jun 8.1 10:24:58 10° WSW 10:34:38 66° NNW 10:44:40 10° NE visible
10 Jun 8.6 12:31:40 10° WNW 12:41:01 44° N 12:50:36 10° ENE visible
10 Jun 8.1 14:37:42 10° NW 14:47:39 58° NNE 14:57:39 10° E visible
10 Jun 7.5 16:42:50 10° WNW 16:52:49 64° SW 17:02:43 10° SE visible
10 Jun 8.7 18:50:45 10° W 18:56:15 16° WSW 19:01:42 10° SSW visible
11 Jun 8.6 12:06:20 10° WNW 12:15:39 44° N 12:25:14 10° ENE visible
11 Jun 8.2 14:12:28 10° WNW 14:22:21 55° NNE 14:32:18 10° E visible
11 Jun 7.5 16:17:35 10° WNW 16:27:38 69° SW 16:37:38 10° SE visible
11 Jun 8.6 18:24:56 10° W 18:31:11 18° WSW 18:37:23 10° SSW visible
12 Jun 8.6 11:40:59 10° WNW 11:50:18 44° N 11:59:52 10° ENE visible
12 Jun 8.2 13:47:14 10° WNW 13:57:02 53° NNE 14:06:56 10° E visible
12 Jun 7.5 15:52:20 10° WNW 16:02:27 74° SW 16:12:31 10° SE visible
12 Jun 8.5 17:59:14 10° W 18:06:06 21° SW 18:12:57 10° SSW visible
13 Jun 8.6 11:15:40 10° W 11:24:57 45° N 11:34:32 10° ENE visible
13 Jun 8.3 13:21:59 10° WNW 13:31:42 51° NNE 13:41:33 10° E visible
13 Jun 7.5 15:27:06 10° WNW 15:37:15 79° SW 15:45:34 17° SE visible
13 Jun 8.4 17:33:38 10° WNW 17:41:02 23° SW 17:42:53 22° SW visible
14 Jun 8.6 10:50:20 10° W 10:59:37 46° N 11:09:12 10° ENE visible
14 Jun 8.3 12:56:45 10° WNW 13:06:22 50° NNE 13:16:11 10° E visible
14 Jun 7.5 15:01:53 10° WNW 15:12:02 84° SW 15:17:23 34° SE visible
14 Jun 8.4 17:08:07 10° WNW 17:15:11 26° WSW 17:15:11 26° WSW visible
15 Jun 8.6 10:25:00 10° W 10:34:16 47° NNW 10:43:53 10° ENE visible
15 Jun 8.4 12:31:29 10° WNW 12:41:02 48° NNE 12:50:47 10° E visible
15 Jun 7.5 14:36:40 10° WNW 14:46:49 89° SW 14:51:27 39° SE visible
15 Jun 8.4 16:42:39 10° WNW 16:49:20 28° WSW 16:49:20 28° WSW visible
